Location: Unspecified
(40.9447°N, 78.9903°W)
Time: 07:18:45
(UTC-04:00)

Cosmos 1674 - Pass Details

Date: 03 August 2021
Orbit: 492 x 516 km, 82.5° (Epoch: 16 September)

Event Time Altitude Azimuth Distance (km) Brightness Sun altitude
Rises 03:32:55 0° 350° (N) 2,643 7.0 -24.2°
Reaches altitude 10° 03:35:04 10° 349° (N) 1,749 5.9 -24.0°
Enters shadow 03:38:05 53° 336° (NNW) 639 3.2 -23.7°
